| time (UTC) | temp F | wind direction | speed knots | gust knots | rain 1hr in | rain 24hr in | rain mn in | humidity % | barometer mb |
| 20260504204556 | 82 | 0 | 0.9 | 10.4 | 0.00 | 0.00 | 0.00 | 45 | 1002.5 |
| 20260504203058 | 82 | 178 | 3.5 | 13.9 | 0.00 | 0.00 | 0.00 | 47 | 1002.5 |
| 20260504201607 | 81 | 165 | 1.7 | 10.4 | 0.00 | 0.00 | 0.00 | 47 | 1002.8 |
| 20260504200103 | 80 | 148 | 1.7 | 12.2 | 0.00 | 0.00 | 0.00 | 49 | 1003.0 |
| 20260504194556 | 80 | 128 | 1.7 | 9.6 | 0.00 | 0.00 | 0.00 | 49 | 1003.4 |
| 20260504193055 | 78 | 138 | 0.9 | 5.2 | 0.00 | 0.00 | 0.00 | 58 | 1003.4 |
| 20260504191626 | 75 | 0 | 0.9 | 6.1 | 0.00 | 0.00 | 0.00 | 59 | 1003.6 |
| 20260504190111 | 73 | 213 | 0.0 | 4.3 | 0.00 | 0.00 | 0.00 | 63 | 1003.9 |
| 20260504184606 | 68 | 0 | 0.0 | 5.2 | 0.00 | 0.00 | 0.00 | 66 | 1003.4 |
| 20260504183105 | 68 | 110 | 0.0 | 4.3 | 0.00 | 0.00 | 0.00 | 67 | 1003.3 |
| 20260504181605 | 69 | 0 | 0.0 | 3.5 | 0.00 | 0.00 | 0.00 | 64 | 1004.5 |
| 20260504180101 | 70 | 0 | 0.0 | 3.5 | 0.00 | 0.00 | 0.00 | 59 | 1005.0 |
| 20260504174604 | 70 | 116 | 0.0 | 2.6 | 0.00 | 0.00 | 0.00 | 58 | 1004.6 |
| 20260504173103 | 71 | 105 | 0.9 | 7.0 | 0.00 | 0.00 | 0.00 | 55 | 1004.9 |
| 20260504171601 | 73 | 171 | 0.9 | 7.0 | 0.00 | 0.00 | 0.00 | 54 | 1005.4 |
| 20260504160104 | 65 | 0 | 0.0 | 5.2 | 0.00 | 0.00 | 0.00 | 68 | 1005.8 |
| 20260504120130 | 59 | 0 | 0.0 | 2.6 | 0.00 | 0.00 | 0.00 | 74 | 1008.1 |
| 20260504081610 | 57 | 0 | 0.0 | 0.0 | 0.00 | 0.00 | 0.00 | 76 | 1008.1 |
| 20260504044606 | 66 | 0 | 0.0 | 2.6 | 0.00 | 0.00 | 0.00 | 58 | 1008.0 |
| 20260504043112 | 66 | 0 | 0.0 | 2.6 | 0.00 | 0.00 | 0.00 | 57 | 1008.1 |
| 20260504041558 | 67 | 181 | 0.0 | 1.7 | 0.00 | 0.00 | 0.00 | 57 | 1008.5 |
| 20260504040058 | 68 | 0 | 0.0 | 1.7 | 0.00 | 0.00 | 0.00 | 55 | 1009.0 |
| 20260504034600 | 68 | 0 | 0.0 | 2.6 | 0.00 | 0.00 | 0.00 | 55 | 1009.0 |
| 20260504033128 | 68 | 0 | 0.0 | 1.7 | 0.00 | 0.00 | 0.00 | 55 | 1008.9 |
| 20260504031600 | 68 | 0 | 0.0 | 1.7 | 0.00 | 0.00 | 0.00 | 55 | 1008.9 |
| 20260504030115 | 68 | 0 | 0.0 | 3.5 | 0.00 | 0.00 | 0.00 | 55 | 1009.1 |
| 20260504024555 | 69 | 0 | 0.0 | 0.9 | 0.00 | 0.00 | 0.00 | 55 | 1008.9 |
| 20260504023058 | 69 | 0 | 0.0 | 1.7 | 0.00 | 0.00 | 0.00 | 54 | 1008.9 |
| 20260504021557 | 70 | 0 | 0.0 | 1.7 | 0.00 | 0.00 | 0.00 | 53 | 1008.9 |
| 20260504020105 | 70 | 0 | 0.0 | 0.9 | 0.00 | 0.00 | 0.00 | 52 | 1008.8 |
| 20260504014604 | 72 | 0 | 0.0 | 0.0 | 0.00 | 0.00 | 0.00 | 50 | 1008.9 |
| 20260504013100 | 73 | 0 | 0.0 | 0.0 | 0.00 | 0.00 | 0.00 | 49 | 1008.8 |
| 20260504011559 | 74 | 0 | 0.0 | 0.9 | 0.00 | 0.00 | 0.00 | 46 | 1008.7 |
| 20260504004600 | 75 | 0 | 0.0 | 0.9 | 0.00 | 0.00 | 0.00 | 43 | 1008.3 |
| 20260504003114 | 76 | 0 | 0.0 | 1.7 | 0.00 | 0.00 | 0.00 | 42 | 1008.3 |
| 20260504001600 | 76 | 0 | 0.0 | 0.9 | 0.00 | 0.00 | 0.00 | 41 | 1008.3 |
| 20260504000105 | 77 | 0 | 0.0 | 1.7 | 0.00 | 0.00 | 0.00 | 41 | 1008.3 |
| 20260503234558 | 77 | 0 | 0.0 | 1.7 | 0.00 | 0.00 | 0.00 | 40 | 1008.3 |
| 20260503233102 | 78 | 220 | 0.0 | 3.5 | 0.00 | 0.00 | 0.00 | 38 | 1008.3 |
| 20260503231556 | 78 | 181 | 0.9 | 7.0 | 0.00 | 0.00 | 0.00 | 37 | 1008.3 |
| 20260503230110 | 80 | 200 | 0.0 | 6.1 | 0.00 | 0.00 | 0.00 | 35 | 1008.6 |
| 20260503224556 | 80 | 0 | 0.9 | 8.7 | 0.00 | 0.00 | 0.00 | 34 | 1008.7 |
| 20260503223110 | 80 | 0 | 0.9 | 4.3 | 0.00 | 0.00 | 0.00 | 36 | 1008.7 |
| 20260503221555 | 80 | 104 | 0.9 | 6.1 | 0.00 | 0.00 | 0.00 | 35 | 1008.9 |
| 20260503220055 | 80 | 232 | 1.7 | 7.8 | 0.00 | 0.00 | 0.00 | 33 | 1009.1 |
| 20260503214559 | 80 | 209 | 0.9 | 4.3 | 0.00 | 0.00 | 0.00 | 33 | 1009.2 |
| 20260503213057 | 79 | 0 | 0.9 | 7.8 | 0.00 | 0.00 | 0.00 | 32 | 1009.4 |
| 20260503211557 | 79 | 248 | 1.7 | 10.4 | 0.00 | 0.00 | 0.00 | 34 | 1009.4 |
| 20260503210058 | 79 | 247 | 0.9 | 7.0 | 0.00 | 0.00 | 0.00 | 35 | 1009.6 |